Regional Weather Roundup
Issued by NWS

Home | Current Version | Previous Version | Text Only | Print | Product List | Glossary Off
Versions: 1 2 3 4 5 6 7 8 9 10 11 12 13 14 15 16 17 18 19 20 21 22 23 24 25 26 27 28 29 30 31 32 33 34 35 36 37 38 39 40 41 42 43 44 45 46 47 48 49 50

000
ASUS43 KDTX 251401
RWRMI
MICHIGAN HOURLY REGIONAL WEATHER ROUNDUP
NATIONAL WEATHER SERVICE DETROIT/PONTIAC MI
1000 AM EDT FRI JUL 25 2014

NOTE: "FAIR" INDICATES FEW OR NO CLOUDS BELOW 12,000 FEET WITH NO
SIGNIFICANT WEATHER AND/OR OBSTRUCTION TO VISIBILITY.

MIZ047>049-052>055-059>063-066>070-074>076-081>083-251500-
SOUTHEAST LOWER MICHIGAN

CITY           SKY/WX    TMP DP  RH WIND       PRES   REMARKS
ADRIAN         PTSUNNY   65  53  65 W6        30.12R
ALMA           CLOUDY    63  54  73 SW3       30.09S
ANN ARBOR      MOSUNNY   67  52  58 SW7       30.11R
BAD AXE        SUNNY     68  54  60 SW6       30.07F
CARO           MOSUNNY   71  56  57 SW7       30.07S
DETROIT CITY   SUNNY     72  49  44 SW13      30.10F
DETROIT        PTSUNNY   68  53  58 SW8       30.11S
FLINT          PTSUNNY   67  53  61 SW5       30.08F
GROSSE ILE     SUNNY     70  52  52 SW8       30.10R
HILLSDALE      PTSUNNY   67  56  67 SW5       30.12R
HOWELL         CLOUDY    63  54  72 S6        30.09F

CITY           SKY/WX    TMP DP  RH WIND       PRES   REMARKS
JACKSON        PTSUNNY   66  55  67 SW9       30.11R
LAMBERTVILLE   SUNNY     68  52  56 SW5       30.11R
LANSING        CLOUDY    66  54  65 SW10      30.09S
LAPEER         FAIR      69  51  53 SW7       30.09S
MASON          PTSUNNY   64  55  74 S5        30.10S
MONROE         SUNNY     70  52  52 SW9       30.09R
MT. CLEMENS    PTSUNNY   71  52  52 SW9       30.08S
PONTIAC        PTSUNNY   66  52  60 SW9       30.09S
PORT HOPE        N/A     69  54  58 SW6       30.05R
PORT HURON     SUNNY     68  57  68 W6        30.09F
TRI CITIES     MOSUNNY   65  54  67 W8        30.08S
TROY           SUNNY     68  52  57 SW6       30.11S
SAGINAW HB     PTSUNNY   68  52  56 SW8       30.06F
$$
MIZ043>046-050>051-056>058-064>065-071>073-077>080-251500-
SOUTHWEST LOWER MICHIGAN

CITY           SKY/WX    TMP DP  RH WIND       PRES   REMARKS
BATTLE CREEK   CLOUDY    67  55  65 W9        30.10R
BENTON HARBOR  PTSUNNY   63  55  75 S5        30.08F
BIG RAPIDS     CLOUDY    62  52  69 S10       30.06F
COLDWATER      PTSUNNY   67  58  73 SW5       30.12R
FREMONT        FAIR      62  55  78 S3        30.06F
HOLLAND        PTSUNNY   66  56  70 S7        30.08F
GRAND RAPIDS   CLOUDY    66  53  63 SW12      30.09F
IONIA          FAIR      62  52  68 SW6       30.07F
KALAMAZOO      CLOUDY    65  55  70 SW8       30.11R
LUDINGTON      CLOUDY    67  55  66 S10       30.02F
MARSHALL       PTSUNNY   64  56  73 SW6       30.10R
MOUNT PLEASANT CLOUDY    64  52  64 SW7       30.06F
MUSKEGON       PTSUNNY   68  58  70 SW7       30.06F
SOUTH HAVEN    CLOUDY    62  56  81 S5        30.08F
$$
MIZ016>042-251500-
NORTHERN LOWER MICHIGAN

CITY           SKY/WX    TMP DP  RH WIND       PRES   REMARKS
ALPENA         SUNNY     67  51  56 SW7       30.03F
BEAVER ISLAND  MOSUNNY   66  54  65 SW14G20   29.97F
BELLAIRE       CLOUDY    62  49  63 S5        30.01F
CADILLAC       CLOUDY    61  51  71 SW7       30.04F
CHARLEVOIX     PTSUNNY   65  53  63 S7        30.01F
FRANKFORT      PTSUNNY   68  53  57 SW7       30.01F
GAYLORD        MOSUNNY   65  49  56 W13       30.03F
GRAYLING       MOSUNNY   69  51  51 SW9       30.04F
HARBOR SPRINGS PTSUNNY   65  51  60 SW7       30.00F
HOUGHTON LAKE  MOSUNNY   64  50  60 SW6       30.05F
MANISTEE       CLOUDY    61  52  72 SE3       30.02F
OSCODA         MOSUNNY   71  50  47 SW13G20   30.03F
PELLSTON       PTSUNNY   66  51  58 SW8       29.99F
ROGERS CITY    PTSUNNY   68  54  61 SW10G16   30.01F
TRAVERSE CITY  CLOUDY    65  49  56 SW5       29.99F
$$
MIZ007>008-015-251500-
EASTERN UPPER MICHIGAN

CITY           SKY/WX    TMP DP  RH WIND       PRES   REMARKS
KINROSS        CLOUDY    64  55  72 SW9       29.96F
MACKINAC ISLAN CLOUDY    64  54  69 SW9G17    29.97F
NEWBERRY       MOSUNNY   64  54  70 SW13G20   29.94F
S. S. MARIE    SUNNY     66  53  63 SW9       29.95F
MUNISING         N/A     72  51  47 S8        29.90F
$$
MIZ004>006-011>014-085-251500-
CENTRAL UPPER MICHIGAN

CITY           SKY/WX    TMP DP  RH WIND       PRES   REMARKS
MANISTIQUE     PTSUNNY   61  54  77 S12       29.95F
ESCANABA       PTSUNNY   64  54  68 SW6       29.94S
MENOMINEE      PTSUNNY   64  55  72 W6        29.95S
SAWYER-GWINN   CLOUDY    68  57  68 SW10      29.93F
$$
MIZ001>003-009>011-084-251500-
WESTERN UPPER MICHIGAN

CITY           SKY/WX    TMP DP  RH WIND       PRES   REMARKS
IRON MOUNTAIN  PTSUNNY   68  59  73 SW5       29.92F
HOUGHTON       MOSUNNY   65  57  75 S5        29.87F
COPPER HARBOR    N/A     71  57  61 W6        29.85F
IRONWOOD       CLOUDY    64  63  94 S7        29.84
$$

ABBREVIATIONS USED IN REMARKS
   TC - TEMPERATURE IN CELSIUS
  WCI - WIND CHILL INDEX
   HX - HEAT INDEX
  VSB - VISIBILITY




USA.gov is the U.S. government's official web portal to all federal, state and local government web resources and services.